This is the latest recevied weather packets stored in our database for station/object VE1UHF-4. If no packets are shown the sender has not sent any weather packets the latest 10 day(s).
| Time | Temp. | Humidity | Pressure | Rain* | Wind** | Luminosity | Snow |
|---|---|---|---|---|---|---|---|
| 1777805213 | 10.56° C | 80% | 1005.2 hPa | 0 mm | - | - | - |
| 1777804312 | 10.56° C | 80% | 1005.4 hPa | 0 mm | - | - | - |
| 1777802511 | 10° C | 78% | 1005.8 hPa | 0 mm | - | - | - |
| 1777801611 | 10° C | 78% | 1005.6 hPa | 0 mm | - | - | - |
| 1777800710 | 10° C | 77% | 1005.8 hPa | 0 mm | - | - | - |
| 1777799809 | 10° C | 76% | 1006 hPa | 0 mm | - | - | - |
| 1777798909 | 10° C | 76% | 1005.8 hPa | 0 mm | - | - | - |
| 1777798008 | 10° C | 75% | 1006 hPa | 0 mm | - | - | - |
| 1777797108 | 10° C | 75% | 1006.1 hPa | 0 mm | - | - | - |
| 1777796207 | 10.56° C | 75% | 1006.4 hPa | 0 mm | - | - | - |
| 1777795308 | 10.56° C | 75% | 1006.5 hPa | 0 mm | - | - | - |
| 1777794406 | 10.56° C | 75% | 1006.6 hPa | 0 mm | - | - | - |
| 1777793506 | 10.56° C | 75% | 1006.9 hPa | 0 mm | - | - | - |
| 1777792605 | 10.56° C | 75% | 1006.9 hPa | 0 mm | - | - | - |
| 1777791707 | 10.56° C | 75% | 1007.1 hPa | 0 mm | - | - | - |
| 1777790805 | 10.56° C | 75% | 1007.2 hPa | 0 mm | - | - | - |
| 1777789903 | 10.56° C | 75% | 1007.3 hPa | 0 mm | - | - | - |
| 1777789003 | 11.11° C | 75% | 1007.7 hPa | 0 mm | - | - | - |
| 1777787202 | 11.11° C | 75% | 1007.6 hPa | 0 mm | - | - | - |
| 1777786301 | 11.67° C | 74% | 1007.7 hPa | 0 mm | - | - | - |
| 1777785401 | 11.67° C | 75% | 1008 hPa | 0 mm | - | - | - |
| 1777783600 | 11.67° C | 74% | 1008.3 hPa | 0 mm | - | - | - |
| 1777782699 | 12.22° C | 74% | 1008.6 hPa | 0 mm | - | - | - |
| 1777781799 | 12.22° C | 74% | 1008.7 hPa | 0 mm | - | - | - |
| 1777780898 | 12.78° C | 74% | 1008.8 hPa | 0 mm | - | - | - |
* Rain since midnight (hover to see other rain measurements)
** Current wind speed in m/s (hover to see current wind gust speed)